Driggs, ID

2:50 PM MDT on August 18, 2017 (GMT -0600)
Driggs

Weather History for KDIJ - June, 2013

Change the Weather History Date:

Wednesday, June 26, 2013

  Actual Average (KJAC) Record (KJAC)
Temperature  
Mean Temperature 64 °F -  
Max Temperature 77 °F 71 °F 90 °F (1988)
Min Temperature 50 °F 37 °F 26 °F (1999)
Degree Days  
Heating Degree Days 2    
Growing Degree Days 14 (Base 50)    
Moisture  
Dew Point 48 °F    
Average Humidity 61    
Maximum Humidity 93    
Minimum Humidity 28    
Precipitation  
Precipitation 0.00 in - - ()
Sea Level Pressure  
Sea Level Pressure 30.01 in    
Wind  
Wind Speed 8 mph (South)    
Max Wind Speed 18 mph    
Max Gust Speed 23 mph    
Visibility 10 miles    
Events Rain    
Averages and records for this station are not official NWS values.
T = Trace of Precipitation, MM = Missing Value Source: NWS Daily Summary

Daily Weather History Graph

Daily Weather History Graph

Search for Another Location

Airport or City:

Trip Planner

Search our weather history database for the weather conditions in past years. The results will help you decide how hot, cold, wet, or windy it might be!

Date:

Astronomy

Jun. 26, 2013 Rise Set
Actual Time 5:44 AM MDT 9:10 PM MDT
Civil Twilight 5:08 AM MDT 9:46 PM MDT
Nautical Twilight 4:20 AM MDT 10:33 PM MDT
Astronomical Twilight 3:21 AM MDT 11:33 PM MDT
Moon 11:26 PM MDT (6/26) 9:47 AM MDT (6/26)
Length of Visible Light 16h 38m
Length of Day
15h 26m
Waning Gibbous, 85% of the Moon is Illuminated
Jun 26
Waning Gibbous
Jun 29
Last Quarter
Jul 8
New
Jul 15
First Quarter
Jul 22
Full

Hourly Weather History & Observations

Time (MDT) Temp. Dew Point Humidity Pressure Visibility Wind Dir Wind Speed Gust Speed Precip Events Conditions
12:56 AM 54.0 °F 50.9 °F 89% 29.92 in 10.0 mi ESE 5.8 mph - 0.00 in Rain Light Rain
1:56 AM 52.9 °F 50.9 °F 93% 29.93 in 10.0 mi East 4.6 mph - 0.00 in   Mostly Cloudy
2:56 AM 52.9 °F 50.0 °F 90% 29.92 in 10.0 mi SSE 5.8 mph - N/A   Mostly Cloudy
3:56 AM 50.9 °F 48.9 °F 93% 29.94 in 10.0 mi SE 3.5 mph - N/A   Mostly Cloudy
4:56 AM 50.9 °F 48.9 °F 93% 29.94 in 10.0 mi SSE 4.6 mph - N/A   Mostly Cloudy
5:56 AM 52.0 °F 47.8 °F 86% 29.94 in 10.0 mi South 3.5 mph - N/A   Mostly Cloudy
6:56 AM 54.0 °F 48.9 °F 83% 29.98 in 10.0 mi South 8.1 mph - N/A   Scattered Clouds
7:56 AM 55.9 °F 50.9 °F 83% 30.01 in 10.0 mi Calm Calm - N/A   Partly Cloudy
8:56 AM 61.0 °F 50.0 °F 67% 30.01 in 10.0 mi SSW 9.2 mph - N/A   Mostly Cloudy
9:56 AM 63.0 °F 48.9 °F 60% 30.02 in 10.0 mi South 15.0 mph - N/A   Scattered Clouds
10:56 AM 63.9 °F 48.9 °F 58% 30.03 in 10.0 mi South 12.7 mph - N/A   Scattered Clouds
11:56 AM 68.0 °F 50.0 °F 52% 30.02 in 10.0 mi South 10.4 mph - N/A   Clear
12:56 PM 70.9 °F 47.8 °F 44% 30.01 in 10.0 mi SSW 12.7 mph - N/A   Partly Cloudy
1:20 PM 71.6 °F 48.2 °F 43% 30.25 in 10.0 mi WSW 8.1 mph 18.4 mph N/A   Partly Cloudy
1:56 PM 72.9 °F 47.8 °F 41% 30.01 in 10.0 mi SSW 13.8 mph 20.7 mph N/A   Partly Cloudy
2:40 PM 73.4 °F 46.4 °F 38% 30.24 in 10.0 mi SW 12.7 mph 19.6 mph N/A   Partly Cloudy
2:56 PM 73.9 °F 47.8 °F 40% 30.00 in 10.0 mi SSW 12.7 mph - N/A   Partly Cloudy
3:56 PM 77.0 °F 43.9 °F 31% 30.00 in 10.0 mi SSW 18.4 mph 23.0 mph N/A   Partly Cloudy
4:56 PM 77.0 °F 41.0 °F 28% 30.00 in 10.0 mi WSW 15.0 mph 21.9 mph N/A   Clear
5:56 PM 75.9 °F 43.0 °F 31% 29.99 in 10.0 mi WSW 10.4 mph 20.7 mph N/A   Clear
6:56 PM 75.9 °F 45.0 °F 33% 29.99 in 10.0 mi West 12.7 mph - N/A   Clear
7:56 PM 73.9 °F 46.9 °F 38% 29.99 in 10.0 mi West 9.2 mph - N/A   Clear
8:56 PM 68.9 °F 47.8 °F 47% 30.01 in 10.0 mi SW 5.8 mph - N/A   Clear
9:56 PM 59.0 °F 50.0 °F 72% 30.05 in 10.0 mi ESE 9.2 mph - N/A   Clear
10:56 PM 57.9 °F 47.8 °F 69% 30.07 in 10.0 mi ESE 6.9 mph - N/A   Clear
11:56 PM 54.9 °F 46.9 °F 75% 30.07 in 10.0 mi East 5.8 mph - N/A   Clear